Time,TemperatureF,DewpointF,PressureIn,WindDirection,WindDirectionDegrees,WindSpeedMPH,WindSpeedGustMPH,Humidity,HourlyPrecipIn,Conditions,Clouds,dailyrainin,SoftwareType,DateUTC
2013-04-16 00:02:00,39.0,34.0,29.65,East,90,0.0,1.0,82,0.00,,,0.03,,2013-04-16 07:02:00,
2013-04-16 00:11:00,39.0,34.0,29.65,East,90,0.0,1.0,82,0.00,,,0.03,,2013-04-16 07:11:00,
2013-04-16 00:21:00,39.0,34.0,29.64,ESE,113,0.0,0.0,82,0.00,,,0.03,,2013-04-16 07:21:00,
2013-04-16 00:31:00,39.0,34.0,29.64,East,90,0.0,0.0,82,0.00,,,0.03,,2013-04-16 07:31:00,
2013-04-16 00:41:00,39.0,34.0,29.64,East,90,0.0,0.0,82,0.00,,,0.03,,2013-04-16 07:41:00,
2013-04-16 00:53:00,39.0,34.0,29.64,East,90,0.0,0.0,82,0.00,,,0.03,,2013-04-16 07:53:00,
2013-04-16 01:02:00,38.0,33.0,29.66,ESE,113,0.0,1.0,83,0.00,,,0.03,,2013-04-16 08:02:00,
2013-04-16 01:11:00,38.0,33.0,29.66,ESE,113,0.0,1.0,83,0.00,,,0.03,,2013-04-16 08:11:00,
2013-04-16 01:22:00,38.0,33.0,29.66,ESE,113,0.0,1.0,83,0.00,,,0.03,,2013-04-16 08:22:00,
2013-04-16 01:31:00,38.0,33.0,29.66,East,90,1.0,2.0,83,0.00,,,0.03,,2013-04-16 08:31:00,
2013-04-16 01:42:00,38.0,33.0,29.66,East,90,1.0,2.0,83,0.00,,,0.03,,2013-04-16 08:42:00,
2013-04-16 01:51:00,38.0,34.0,29.66,ESE,113,1.0,2.0,84,0.00,,,0.03,,2013-04-16 08:51:00,
2013-04-16 02:02:00,38.0,34.0,29.67,East,90,2.0,3.0,84,0.00,,,0.03,,2013-04-16 09:02:00,
2013-04-16 02:11:00,38.0,34.0,29.67,East,90,2.0,3.0,84,0.00,,,0.03,,2013-04-16 09:11:00,
2013-04-16 02:22:00,38.0,34.0,29.67,East,90,2.0,2.0,85,0.00,,,0.03,,2013-04-16 09:22:00,
2013-04-16 02:32:00,38.0,34.0,29.67,ESE,113,2.0,3.0,85,0.00,,,0.03,,2013-04-16 09:32:00,
2013-04-16 02:42:00,38.0,34.0,29.67,ESE,113,2.0,3.0,85,0.00,,,0.03,,2013-04-16 09:42:00,
2013-04-16 02:52:00,38.0,34.0,29.68,ESE,113,2.0,3.0,85,0.00,,,0.03,,2013-04-16 09:52:00,
2013-04-16 03:03:00,39.0,35.0,29.67,SSE,158,2.0,3.0,85,0.00,,,0.03,,2013-04-16 10:03:00,
2013-04-16 03:12:00,39.0,35.0,29.67,SSE,158,2.0,3.0,85,0.00,,,0.03,,2013-04-16 10:12:00,
2013-04-16 03:22:00,39.0,35.0,29.67,East,90,3.0,3.0,85,0.00,,,0.03,,2013-04-16 10:22:00,
2013-04-16 03:32:00,39.0,35.0,29.67,ESE,113,2.0,3.0,85,0.00,,,0.03,,2013-04-16 10:32:00,
2013-04-16 03:42:00,39.0,35.0,29.67,ESE,113,2.0,3.0,85,0.00,,,0.03,,2013-04-16 10:42:00,
2013-04-16 03:52:00,39.0,35.0,29.68,East,90,2.0,2.0,84,0.00,,,0.03,,2013-04-16 10:52:00,
2013-04-16 04:02:00,39.0,35.0,29.69,NNE,23,1.0,3.0,84,0.00,,,0.03,,2013-04-16 11:02:00,
2013-04-16 04:12:00,39.0,35.0,29.69,NNE,23,1.0,3.0,84,0.00,,,0.03,,2013-04-16 11:12:00,
2013-04-16 04:22:00,38.0,34.0,29.69,NNE,23,0.0,0.0,84,0.00,,,0.03,,2013-04-16 11:22:00,
2013-04-16 04:32:00,38.0,34.0,29.70,NNE,23,0.0,0.0,84,0.00,,,0.03,,2013-04-16 11:32:00,
2013-04-16 04:41:00,38.0,34.0,29.70,NNE,23,0.0,0.0,84,0.00,,,0.03,,2013-04-16 11:41:00,
2013-04-16 04:52:00,38.0,34.0,29.70,East,90,0.0,0.0,84,0.00,,,0.03,,2013-04-16 11:52:00,
2013-04-16 05:02:00,38.0,34.0,29.70,East,90,0.0,0.0,84,0.00,,,0.03,,2013-04-16 12:02:00,
2013-04-16 05:11:00,38.0,34.0,29.70,East,90,0.0,0.0,84,0.00,,,0.03,,2013-04-16 12:11:00,
2013-04-16 05:21:00,37.0,33.0,29.71,NE,45,0.0,0.0,86,0.00,,,0.03,,2013-04-16 12:21:00,
2013-04-16 05:31:00,36.0,32.0,29.71,East,90,0.0,0.0,86,0.00,,,0.03,,2013-04-16 12:31:00,
2013-04-16 05:42:00,36.0,32.0,29.71,East,90,0.0,0.0,86,0.00,,,0.03,,2013-04-16 12:42:00,
2013-04-16 05:52:00,36.0,32.0,29.71,ESE,113,0.0,0.0,86,0.00,,,0.03,,2013-04-16 12:52:00,
2013-04-16 06:01:00,36.0,32.0,29.71,East,90,0.0,1.0,86,0.00,,,0.03,,2013-04-16 13:01:00,
2013-04-16 06:11:00,36.0,32.0,29.71,East,90,0.0,1.0,86,0.00,,,0.03,,2013-04-16 13:11:00,
2013-04-16 06:22:00,36.0,32.0,29.72,ENE,68,0.0,0.0,86,0.00,,,0.03,,2013-04-16 13:22:00,
2013-04-16 06:32:00,36.0,32.0,29.72,ENE,68,0.0,0.0,86,0.00,,,0.03,,2013-04-16 13:32:00,
2013-04-16 06:42:00,36.0,32.0,29.72,ENE,68,0.0,0.0,86,0.00,,,0.03,,2013-04-16 13:42:00,
2013-04-16 06:52:00,36.0,33.0,29.73,East,90,0.0,1.0,87,0.00,,,0.03,,2013-04-16 13:52:00,
2013-04-16 07:02:00,36.0,33.0,29.73,ESE,113,0.0,1.0,87,0.00,,,0.03,,2013-04-16 14:02:00,
2013-04-16 07:12:00,36.0,33.0,29.73,ESE,113,0.0,1.0,87,0.00,,,0.03,,2013-04-16 14:12:00,
2013-04-16 07:22:00,38.0,34.0,29.74,ESE,113,0.0,1.0,86,0.00,,,0.03,,2013-04-16 14:22:00,
2013-04-16 07:32:00,39.0,35.0,29.74,SE,135,0.0,0.0,86,0.00,,,0.03,,2013-04-16 14:32:00,
2013-04-16 07:42:00,39.0,35.0,29.74,SE,135,0.0,0.0,86,0.00,,,0.03,,2013-04-16 14:42:00,
2013-04-16 07:51:00,39.0,35.0,29.75,ESE,113,0.0,0.0,86,0.00,,,0.03,,2013-04-16 14:51:00,
2013-04-16 08:02:00,40.0,36.0,29.76,ESE,113,0.0,0.0,86,0.00,,,0.03,,2013-04-16 15:02:00,
2013-04-16 08:11:00,40.0,36.0,29.76,ESE,113,0.0,0.0,86,0.00,,,0.03,,2013-04-16 15:11:00,
2013-04-16 08:21:00,41.0,37.0,29.77,ESE,113,0.0,1.0,86,0.00,,,0.03,,2013-04-16 15:21:00,
2013-04-16 08:32:00,42.0,38.0,29.78,ESE,113,0.0,0.0,86,0.00,,,0.03,,2013-04-16 15:32:00,
2013-04-16 08:43:00,42.0,38.0,29.78,ESE,113,0.0,0.0,86,0.00,,,0.03,,2013-04-16 15:43:00,
2013-04-16 08:53:00,43.0,38.0,29.78,ESE,113,0.0,0.0,84,0.00,,,0.03,,2013-04-16 15:53:00,
2013-04-16 09:03:00,44.0,39.0,29.80,SW,225,0.0,1.0,83,0.00,,,0.03,,2013-04-16 16:03:00,
2013-04-16 09:12:00,44.0,39.0,29.80,SW,225,0.0,1.0,83,0.00,,,0.03,,2013-04-16 16:12:00,
2013-04-16 09:22:00,45.0,40.0,29.77,WSW,248,0.0,1.0,82,0.00,,,0.03,,2013-04-16 16:22:00,
2013-04-16 09:32:00,46.0,40.0,29.77,West,270,0.0,1.0,80,0.00,,,0.03,,2013-04-16 16:32:00,
2013-04-16 09:42:00,46.0,40.0,29.77,West,270,0.0,1.0,80,0.00,,,0.03,,2013-04-16 16:42:00,
2013-04-16 09:52:00,45.0,38.0,29.77,WNW,293,1.0,1.0,77,0.00,,,0.03,,2013-04-16 16:52:00,
2013-04-16 10:02:00,46.0,39.0,29.78,SE,135,1.0,2.0,77,0.00,,,0.03,,2013-04-16 17:02:00,
2013-04-16 10:11:00,46.0,39.0,29.78,SE,135,1.0,2.0,77,0.00,,,0.03,,2013-04-16 17:11:00,
2013-04-16 10:22:00,47.0,39.0,29.78,SW,225,0.0,1.0,74,0.00,,,0.03,,2013-04-16 17:22:00,
2013-04-16 10:32:00,48.0,39.0,29.78,South,180,0.0,0.0,70,0.00,,,0.03,,2013-04-16 17:32:00,
2013-04-16 10:43:00,48.0,39.0,29.78,South,180,0.0,0.0,70,0.00,,,0.03,,2013-04-16 17:43:00,
2013-04-16 10:52:00,48.0,38.0,29.78,SSW,203,0.0,1.0,69,0.00,,,0.03,,2013-04-16 17:52:00,
2013-04-16 11:02:00,47.0,37.0,29.78,SSW,203,1.0,2.0,68,0.00,,,0.03,,2013-04-16 18:02:00,
2013-04-16 11:11:00,47.0,37.0,29.78,SSW,203,1.0,2.0,68,0.00,,,0.03,,2013-04-16 18:11:00,
2013-04-16 11:22:00,48.0,38.0,29.78,West,270,1.0,3.0,67,0.00,,,0.03,,2013-04-16 18:22:00,
2013-04-16 11:32:00,50.0,39.0,29.78,NW,315,1.0,3.0,66,0.00,,,0.03,,2013-04-16 18:32:00,
2013-04-16 11:42:00,50.0,39.0,29.78,NW,315,1.0,3.0,66,0.00,,,0.03,,2013-04-16 18:42:00,
2013-04-16 11:52:00,50.0,39.0,29.78,NW,315,1.0,3.0,66,0.00,,,0.03,,2013-04-16 18:52:00,
2013-04-16 12:02:00,50.0,39.0,29.78,NW,315,1.0,3.0,66,0.00,,,0.03,,2013-04-16 19:02:00,
2013-04-16 21:52:00,44.0,32.0,29.84,East,90,2.0,2.0,63,0.00,,,0.00,,2013-04-17 04:52:00,
2013-04-16 22:02:00,44.0,33.0,29.85,ESE,113,2.0,2.0,65,0.00,,,0.05,,2013-04-17 05:02:00,
2013-04-16 22:12:00,44.0,33.0,29.85,ESE,113,2.0,2.0,65,0.00,,,0.05,,2013-04-17 05:12:00,
2013-04-16 22:22:00,44.0,33.0,29.85,ESE,113,2.0,3.0,64,0.00,,,0.05,,2013-04-17 05:22:00,
2013-04-16 22:32:00,45.0,33.0,29.85,East,90,2.0,3.0,62,0.00,,,0.05,,2013-04-17 05:32:00,
2013-04-16 22:42:00,45.0,33.0,29.85,East,90,2.0,3.0,62,0.00,,,0.05,,2013-04-17 05:42:00,
2013-04-16 22:52:00,45.0,33.0,29.85,East,90,2.0,2.0,62,0.00,,,0.05,,2013-04-17 05:52:00,
2013-04-16 23:02:00,44.0,32.0,29.85,East,90,1.0,2.0,62,0.00,,,0.05,,2013-04-17 06:02:00,
2013-04-16 23:11:00,44.0,32.0,29.85,East,90,1.0,2.0,62,0.00,,,0.05,,2013-04-17 06:11:00,
2013-04-16 23:22:00,43.0,31.0,29.86,East,90,1.0,2.0,63,0.00,,,0.05,,2013-04-17 06:22:00,
2013-04-16 23:32:00,43.0,32.0,29.86,SE,135,1.0,1.0,64,0.00,,,0.05,,2013-04-17 06:32:00,
2013-04-16 23:42:00,43.0,32.0,29.86,SE,135,1.0,1.0,64,0.00,,,0.05,,2013-04-17 06:42:00,
2013-04-16 23:52:00,42.0,32.0,29.86,ESE,113,0.0,2.0,68,0.00,,,0.05,,2013-04-17 06:52:00,